Time,TemperatureF,DewpointF,PressureIn,WindDirection,WindDirectionDegrees,WindSpeedMPH,WindSpeedGustMPH,Humidity,HourlyPrecipIn,Conditions,Clouds,dailyrainin,SolarRadiationWatts/m^2,SoftwareType,DateUTC
2013-03-12 00:00:00,37.0,32.3,29.67,SSW,195,10.0,10.0,83,0.00,,,0.26,0,Wunderground v.1.15,2013-03-12 04:00:00,
2013-03-12 00:02:00,37.0,32.3,29.67,SW,231,4.0,10.0,83,0.00,,,0.00,0,Wunderground v.1.15,2013-03-12 04:02:00,
2013-03-12 00:03:00,37.0,32.3,29.67,South,183,6.0,10.0,83,0.00,,,0.00,0,Wunderground v.1.15,2013-03-12 04:03:00,
2013-03-12 00:09:00,37.0,32.3,29.67,South,185,3.0,10.0,83,0.00,,,0.00,0,Wunderground v.1.15,2013-03-12 04:09:00,
2013-03-12 00:14:00,37.0,32.3,29.67,WSW,252,9.0,9.0,83,0.00,,,0.00,0,Wunderground v.1.15,2013-03-12 04:14:00,
2013-03-12 00:20:00,37.0,32.3,29.67,SSW,195,5.0,5.0,83,0.00,,,0.00,0,Wunderground v.1.15,2013-03-12 04:20:00,
2013-03-12 00:25:00,37.0,32.0,29.67,SW,223,4.0,10.0,82,0.00,,,0.00,0,Wunderground v.1.15,2013-03-12 04:25:00,
2013-03-12 00:30:00,37.0,32.0,29.68,SSW,196,6.0,6.0,82,0.00,,,0.00,0,Wunderground v.1.15,2013-03-12 04:30:00,
2013-03-12 00:36:00,37.0,32.0,29.68,SSW,192,6.0,6.0,82,0.00,,,0.00,0,Wunderground v.1.15,2013-03-12 04:36:00,
2013-03-12 00:41:00,37.0,32.0,29.68,South,178,8.0,8.0,82,0.00,,,0.00,0,Wunderground v.1.15,2013-03-12 04:41:00,
2013-03-12 00:47:00,37.0,32.0,29.68,SW,219,8.0,8.0,82,0.00,,,0.00,0,Wunderground v.1.15,2013-03-12 04:47:00,
2013-03-12 00:52:00,36.9,31.9,29.68,SSW,202,6.0,8.0,82,0.00,,,0.00,0,Wunderground v.1.15,2013-03-12 04:52:00,
2013-03-12 00:58:00,36.9,31.6,29.68,SW,227,11.0,11.0,81,0.00,,,0.00,0,Wunderground v.1.15,2013-03-12 04:58:00,
2013-03-12 01:00:00,37.0,31.7,29.68,SSW,202,6.0,14.0,81,0.00,,,-99.99,0,WeatherLink 6.0.0,2013-03-12 05:00:00,
2013-03-12 01:04:00,36.9,31.6,29.68,SW,223,4.0,12.0,81,0.00,,,0.00,0,Wunderground v.1.15,2013-03-12 05:04:00,
2013-03-12 01:09:00,36.9,31.6,29.68,SSW,202,5.0,12.0,81,0.00,,,0.00,0,Wunderground v.1.15,2013-03-12 05:09:00,
2013-03-12 01:15:00,36.9,31.6,29.68,SW,214,3.0,6.0,81,0.00,,,0.00,0,Wunderground v.1.15,2013-03-12 05:15:00,
2013-03-12 01:20:00,36.9,31.6,29.68,WSW,240,6.0,6.0,81,0.00,,,0.00,0,Wunderground v.1.15,2013-03-12 05:20:00,
2013-03-12 01:26:00,36.8,31.8,29.68,WSW,254,2.0,6.0,82,0.00,,,0.00,0,Wunderground v.1.15,2013-03-12 05:26:00,
2013-03-12 01:30:00,36.9,31.6,29.69,SSW,202,6.0,19.0,81,0.00,,,-99.99,0,WeatherLink 6.0.0,2013-03-12 05:30:00,
2013-03-12 01:32:00,36.8,31.5,29.69,SW,221,4.0,11.0,81,0.00,,,0.00,0,Wunderground v.1.15,2013-03-12 05:32:00,
2013-03-12 01:37:00,36.7,31.4,29.68,SW,235,7.0,11.0,81,0.00,,,0.00,0,Wunderground v.1.15,2013-03-12 05:37:00,
2013-03-12 01:42:00,36.7,31.4,29.69,South,180,5.0,6.0,81,0.00,,,0.00,0,Wunderground v.1.15,2013-03-12 05:42:00,
2013-03-12 01:47:00,36.6,31.6,29.69,South,176,3.0,7.0,82,0.00,,,0.00,0,Wunderground v.1.15,2013-03-12 05:47:00,
2013-03-12 01:53:00,36.6,31.6,29.69,SSW,192,4.0,9.0,82,0.00,,,0.00,0,Wunderground v.1.15,2013-03-12 05:53:00,
2013-03-12 01:58:00,36.5,31.5,29.70,SW,225,6.0,9.0,82,0.00,,,0.00,0,Wunderground v.1.15,2013-03-12 05:58:00,
2013-03-12 02:00:00,36.7,31.7,29.70,SW,225,5.0,15.0,82,0.00,,,-99.99,0,WeatherLink 6.0.0,2013-03-12 06:00:00,
2013-03-12 02:03:00,36.4,31.4,29.70,SW,221,7.0,15.0,82,0.00,,,0.00,0,Wunderground v.1.15,2013-03-12 06:03:00,
2013-03-12 02:08:00,36.3,31.6,29.70,SSW,211,4.0,17.0,83,0.00,,,0.00,0,Wunderground v.1.15,2013-03-12 06:08:00,
2013-03-12 02:13:00,36.2,31.5,29.70,SW,219,4.0,12.0,83,0.00,,,0.00,0,Wunderground v.1.15,2013-03-12 06:13:00,
2013-03-12 02:18:00,36.1,31.4,29.70,WNW,303,6.0,12.0,83,0.00,,,0.00,0,Wunderground v.1.15,2013-03-12 06:18:00,
2013-03-12 02:23:00,36.0,31.3,29.70,SSW,203,11.0,13.0,83,0.00,,,0.00,0,Wunderground v.1.15,2013-03-12 06:23:00,
2013-03-12 02:28:00,35.9,31.2,29.70,SW,231,4.0,13.0,83,0.00,,,0.00,0,Wunderground v.1.15,2013-03-12 06:28:00,
2013-03-12 02:30:00,36.2,31.8,29.71,SSW,202,6.0,17.0,84,0.00,,,-99.99,0,WeatherLink 6.0.0,2013-03-12 06:30:00,
2013-03-12 02:33:00,35.8,31.4,29.71,SSW,201,5.0,12.0,84,0.00,,,0.00,0,Wunderground v.1.15,2013-03-12 06:33:00,
2013-03-12 02:38:00,35.7,31.3,29.71,WSW,245,4.0,12.0,84,0.00,,,0.00,0,Wunderground v.1.15,2013-03-12 06:38:00,
2013-03-12 02:43:00,35.6,31.5,29.71,SSW,196,7.0,7.0,85,0.00,,,0.00,0,Wunderground v.1.15,2013-03-12 06:43:00,
2013-03-12 02:48:00,35.6,31.2,29.71,SSW,201,4.0,8.0,84,0.00,,,0.00,0,Wunderground v.1.15,2013-03-12 06:48:00,
2013-03-12 02:53:00,35.6,31.2,29.72,SW,229,3.0,9.0,84,0.00,,,0.00,0,Wunderground v.1.15,2013-03-12 06:53:00,
2013-03-12 02:58:00,35.6,31.2,29.72,South,177,6.0,9.0,84,0.00,,,0.00,0,Wunderground v.1.15,2013-03-12 06:58:00,
2013-03-12 03:00:00,35.7,31.3,29.72,SW,225,5.0,12.0,84,0.00,,,-99.99,0,WeatherLink 6.0.0,2013-03-12 07:00:00,
2013-03-12 03:03:00,35.5,31.1,29.72,SW,223,3.0,10.0,84,0.00,,,0.00,0,Wunderground v.1.15,2013-03-12 07:03:00,
2013-03-12 03:08:00,35.5,31.1,29.72,SSW,192,6.0,10.0,84,0.00,,,0.00,0,Wunderground v.1.15,2013-03-12 07:08:00,
2013-03-12 03:13:00,35.4,31.0,29.72,SSW,194,1.0,10.0,84,0.00,,,0.00,0,Wunderground v.1.15,2013-03-12 07:13:00,
2013-03-12 03:18:00,35.4,31.0,29.72,West,279,8.0,11.0,84,0.00,,,0.00,0,Wunderground v.1.15,2013-03-12 07:18:00,
2013-03-12 03:23:00,35.3,30.9,29.72,SSW,203,4.0,8.0,84,0.00,,,0.00,0,Wunderground v.1.15,2013-03-12 07:23:00,
2013-03-12 03:28:00,35.3,30.9,29.72,SW,224,5.0,12.0,84,0.00,,,0.00,0,Wunderground v.1.15,2013-03-12 07:28:00,
2013-03-12 03:30:00,35.4,31.3,29.72,SW,225,4.0,12.0,85,0.00,,,-99.99,0,WeatherLink 6.0.0,2013-03-12 07:30:00,
2013-03-12 03:33:00,35.2,31.1,29.73,WSW,248,6.0,9.0,85,0.00,,,0.00,0,Wunderground v.1.15,2013-03-12 07:33:00,
2013-03-12 03:38:00,35.2,31.1,29.73,SW,215,5.0,9.0,85,0.00,,,0.00,0,Wunderground v.1.15,2013-03-12 07:38:00,
2013-03-12 03:43:00,35.1,31.0,29.73,SW,226,2.0,9.0,85,0.00,,,0.00,0,Wunderground v.1.15,2013-03-12 07:43:00,
2013-03-12 03:48:00,35.1,31.0,29.73,WSW,240,3.0,9.0,85,0.00,,,0.00,0,Wunderground v.1.15,2013-03-12 07:48:00,
2013-03-12 03:53:00,35.0,30.9,29.72,WSW,242,7.0,11.0,85,0.00,,,0.00,0,Wunderground v.1.15,2013-03-12 07:53:00,
2013-03-12 03:58:00,35.0,30.7,29.73,WSW,238,13.0,19.0,84,0.00,,,0.00,0,Wunderground v.1.15,2013-03-12 07:58:00,
2013-03-12 04:00:00,35.1,30.8,29.73,SW,225,5.0,20.0,84,0.00,,,-99.99,0,WeatherLink 6.0.0,2013-03-12 08:00:00,
2013-03-12 04:03:00,35.1,30.5,29.73,SW,232,8.0,9.0,83,0.00,,,0.00,0,Wunderground v.1.15,2013-03-12 08:03:00,
2013-03-12 04:07:00,35.1,30.5,29.73,WSW,254,2.0,13.0,83,0.00,,,0.00,0,Wunderground v.1.15,2013-03-12 08:07:00,
2013-03-12 04:12:00,35.0,30.4,29.73,WSW,242,3.0,12.0,83,0.00,,,0.00,0,Wunderground v.1.15,2013-03-12 08:12:00,
2013-03-12 04:18:00,35.0,30.1,29.73,SW,229,3.0,12.0,82,0.00,,,0.00,0,Wunderground v.1.15,2013-03-12 08:18:00,
2013-03-12 04:23:00,35.0,30.1,29.73,SSW,205,8.0,10.0,82,0.00,,,0.00,0,Wunderground v.1.15,2013-03-12 08:23:00,
2013-03-12 04:28:00,34.9,30.0,29.72,SW,232,9.0,10.0,82,0.00,,,0.00,0,Wunderground v.1.15,2013-03-12 08:28:00,
2013-03-12 04:30:00,35.0,30.1,29.72,SW,225,5.0,15.0,82,0.00,,,-99.99,0,WeatherLink 6.0.0,2013-03-12 08:30:00,
2013-03-12 04:33:00,34.9,30.0,29.73,SW,234,2.0,6.0,82,0.00,,,0.00,0,Wunderground v.1.15,2013-03-12 08:33:00,
2013-03-12 04:38:00,34.8,29.6,29.73,SSW,213,5.0,13.0,81,0.00,,,0.00,0,Wunderground v.1.15,2013-03-12 08:38:00,
2013-03-12 04:43:00,34.8,29.6,29.73,SW,235,5.0,8.0,81,0.00,,,0.00,0,Wunderground v.1.15,2013-03-12 08:43:00,
2013-03-12 04:48:00,34.8,29.9,29.73,WSW,238,6.0,11.0,82,0.00,,,0.00,0,Wunderground v.1.15,2013-03-12 08:48:00,
2013-03-12 04:53:00,34.7,29.5,29.73,WSW,246,2.0,9.0,81,0.00,,,0.00,0,Wunderground v.1.15,2013-03-12 08:53:00,
2013-03-12 04:58:00,34.7,29.8,29.73,SSW,202,7.0,11.0,82,0.00,,,0.00,0,Wunderground v.1.15,2013-03-12 08:58:00,
2013-03-12 05:00:00,34.8,29.6,29.73,SW,225,5.0,17.0,81,0.00,,,-99.99,0,WeatherLink 6.0.0,2013-03-12 09:00:00,
2013-03-12 05:03:00,34.7,29.5,29.73,SSW,207,4.0,11.0,81,0.00,,,0.00,0,Wunderground v.1.15,2013-03-12 09:03:00,
2013-03-12 05:08:00,34.7,29.5,29.74,SSW,201,4.0,12.0,81,0.00,,,0.00,0,Wunderground v.1.15,2013-03-12 09:08:00,
2013-03-12 05:13:00,34.7,29.8,29.74,WSW,242,5.0,7.0,82,0.00,,,0.00,0,Wunderground v.1.15,2013-03-12 09:13:00,
2013-03-12 05:18:00,34.6,29.7,29.74,SW,223,5.0,8.0,82,0.00,,,0.00,0,Wunderground v.1.15,2013-03-12 09:18:00,
2013-03-12 05:23:00,34.6,29.7,29.74,SSW,205,5.0,9.0,82,0.00,,,0.00,0,Wunderground v.1.15,2013-03-12 09:23:00,
2013-03-12 05:28:00,34.6,29.7,29.75,SSW,205,5.0,12.0,82,0.00,,,0.00,0,Wunderground v.1.15,2013-03-12 09:28:00,
2013-03-12 05:30:00,34.6,29.7,29.74,SW,225,5.0,13.0,82,0.00,,,-99.99,0,WeatherLink 6.0.0,2013-03-12 09:30:00,
2013-03-12 05:33:00,34.5,29.6,29.75,WSW,242,6.0,14.0,82,0.00,,,0.00,0,Wunderground v.1.15,2013-03-12 09:33:00,
2013-03-12 05:38:00,34.5,29.9,29.75,SW,221,3.0,14.0,83,0.00,,,0.00,0,Wunderground v.1.15,2013-03-12 09:38:00,
2013-03-12 05:43:00,34.4,30.1,29.75,South,186,1.0,6.0,84,0.00,,,0.00,0,Wunderground v.1.15,2013-03-12 09:43:00,
2013-03-12 05:48:00,34.3,30.0,29.75,SSW,204,2.0,9.0,84,0.00,,,0.00,0,Wunderground v.1.15,2013-03-12 09:48:00,
2013-03-12 05:53:00,34.2,30.2,29.75,SSW,207,6.0,6.0,85,0.00,,,0.00,0,Wunderground v.1.15,2013-03-12 09:53:00,
2013-03-12 05:58:00,34.2,30.2,29.75,SSW,199,4.0,7.0,85,0.00,,,0.00,0,Wunderground v.1.15,2013-03-12 09:58:00,
2013-03-12 06:00:00,34.3,30.3,29.75,SSW,202,4.0,14.0,85,0.00,,,-99.99,0,WeatherLink 6.0.0,2013-03-12 10:00:00,
2013-03-12 06:03:00,34.1,30.1,29.75,SW,226,3.0,5.0,85,0.00,,,0.00,0,Wunderground v.1.15,2013-03-12 10:03:00,
2013-03-12 06:08:00,34.1,30.1,29.76,SSW,206,4.0,8.0,85,0.00,,,0.00,0,Wunderground v.1.15,2013-03-12 10:08:00,
2013-03-12 06:13:00,34.2,29.9,29.76,SW,235,7.0,13.0,84,0.00,,,0.00,0,Wunderground v.1.15,2013-03-12 10:13:00,
2013-03-12 06:18:00,34.2,29.9,29.76,South,189,3.0,13.0,84,0.00,,,0.00,0,Wunderground v.1.15,2013-03-12 10:18:00,
2013-03-12 06:23:00,34.3,30.0,29.77,SW,224,3.0,9.0,84,0.00,,,0.00,0,Wunderground v.1.15,2013-03-12 10:23:00,
2013-03-12 06:28:00,34.3,30.0,29.77,SW,217,4.0,9.0,84,0.00,,,0.00,0,Wunderground v.1.15,2013-03-12 10:28:00,
2013-03-12 06:30:00,34.2,29.9,29.77,SSW,202,5.0,15.0,84,0.00,,,-99.99,0,WeatherLink 6.0.0,2013-03-12 10:30:00,
2013-03-12 06:33:00,34.2,29.9,29.77,SSW,201,7.0,9.0,84,0.00,,,0.00,0,Wunderground v.1.15,2013-03-12 10:33:00,
2013-03-12 06:38:00,34.2,29.9,29.77,SW,221,3.0,9.0,84,0.00,,,0.00,0,Wunderground v.1.15,2013-03-12 10:38:00,
2013-03-12 06:43:00,34.1,30.1,29.77,WSW,245,6.0,9.0,85,0.00,,,0.00,0,Wunderground v.1.15,2013-03-12 10:43:00,
2013-03-12 06:48:00,33.9,29.9,29.77,SSW,213,3.0,9.0,85,0.00,,,0.00,0,Wunderground v.1.15,2013-03-12 10:48:00,
2013-03-12 06:53:00,33.9,29.9,29.77,South,191,3.0,6.0,85,0.00,,,0.00,0,Wunderground v.1.15,2013-03-12 10:53:00,
2013-03-12 06:58:00,33.9,29.9,29.77,SSW,205,1.0,9.0,85,0.00,,,0.00,0,Wunderground v.1.15,2013-03-12 10:58:00,
2013-03-12 07:00:00,34.0,30.0,29.77,SW,225,4.0,9.0,85,0.00,,,-99.99,0,WeatherLink 6.0.0,2013-03-12 11:00:00,
2013-03-12 07:03:00,34.0,30.0,29.77,WSW,238,5.0,8.0,85,0.00,,,0.00,0,Wunderground v.1.15,2013-03-12 11:03:00,
2013-03-12 07:08:00,34.0,29.7,29.77,SW,224,3.0,8.0,84,0.00,,,0.00,0,Wunderground v.1.15,2013-03-12 11:08:00,
2013-03-12 07:13:00,34.0,29.7,29.78,SW,236,6.0,12.0,84,0.00,,,0.00,0,Wunderground v.1.15,2013-03-12 11:13:00,
2013-03-12 07:18:00,33.9,29.6,29.78,WSW,248,3.0,12.0,84,0.00,,,0.00,0,Wunderground v.1.15,2013-03-12 11:18:00,
2013-03-12 07:23:00,33.9,29.6,29.78,West,261,4.0,9.0,84,0.00,,,0.00,0,Wunderground v.1.15,2013-03-12 11:23:00,
2013-03-12 07:28:00,33.9,29.6,29.78,SW,230,6.0,11.0,84,0.00,,,0.00,0,Wunderground v.1.15,2013-03-12 11:28:00,
2013-03-12 07:30:00,33.9,29.3,29.78,SW,225,5.0,12.0,83,0.00,,,-99.99,0,WeatherLink 6.0.0,2013-03-12 11:30:00,
2013-03-12 07:33:00,33.8,29.2,29.78,WSW,258,6.0,8.0,83,0.00,,,0.00,0,Wunderground v.1.15,2013-03-12 11:33:00,
2013-03-12 07:38:00,33.7,29.1,29.78,WSW,257,3.0,9.0,83,0.00,,,0.00,0,Wunderground v.1.15,2013-03-12 11:38:00,
2013-03-12 07:43:00,33.7,29.1,29.78,SW,229,6.0,9.0,83,0.00,,,0.00,0,Wunderground v.1.15,2013-03-12 11:43:00,
2013-03-12 07:48:00,33.7,29.1,29.78,SSW,194,4.0,9.0,83,0.00,,,0.00,0,Wunderground v.1.15,2013-03-12 11:48:00,
2013-03-12 07:53:00,33.7,28.8,29.79,WSW,252,2.0,11.0,82,0.00,,,0.00,0,Wunderground v.1.15,2013-03-12 11:53:00,
2013-03-12 07:58:00,33.7,28.8,29.78,WSW,249,6.0,11.0,82,0.00,,,0.00,0,Wunderground v.1.15,2013-03-12 11:58:00,
2013-03-12 08:00:00,33.7,28.8,29.78,WSW,247,4.0,11.0,82,0.00,,,-99.99,0,WeatherLink 6.0.0,2013-03-12 12:00:00,
2013-03-12 08:03:00,33.7,28.8,29.79,WSW,238,2.0,4.0,82,0.00,,,0.00,0,Wunderground v.1.15,2013-03-12 12:03:00,
2013-03-12 08:08:00,33.7,28.8,29.79,SSW,194,4.0,10.0,82,0.00,,,0.00,5,Wunderground v.1.15,2013-03-12 12:08:00,
2013-03-12 08:13:00,33.7,28.8,29.79,SW,229,4.0,7.0,82,0.00,,,0.00,9,Wunderground v.1.15,2013-03-12 12:13:00,
2013-03-12 08:18:00,33.7,28.8,29.79,SW,234,2.0,8.0,82,0.00,,,0.00,11,Wunderground v.1.15,2013-03-12 12:18:00,
2013-03-12 08:23:00,33.7,29.1,29.79,West,281,6.0,7.0,83,0.00,,,0.00,14,Wunderground v.1.15,2013-03-12 12:23:00,
2013-03-12 08:28:00,33.8,29.2,29.79,WSW,252,3.0,8.0,83,0.00,,,0.00,18,Wunderground v.1.15,2013-03-12 12:28:00,
2013-03-12 08:30:00,33.7,28.8,29.79,SW,225,4.0,11.0,82,0.00,,,-99.99,9,WeatherLink 6.0.0,2013-03-12 12:30:00,
2013-03-12 08:33:00,33.8,29.2,29.79,SW,234,6.0,8.0,83,0.00,,,0.00,28,Wunderground v.1.15,2013-03-12 12:33:00,
2013-03-12 08:38:00,33.8,29.2,29.80,SSW,193,4.0,8.0,83,0.00,,,0.00,44,Wunderground v.1.15,2013-03-12 12:38:00,
2013-03-12 08:43:00,33.9,29.3,29.80,SSW,200,4.0,7.0,83,0.00,,,0.00,60,Wunderground v.1.15,2013-03-12 12:43:00,
2013-03-12 08:48:00,33.9,29.3,29.80,SSW,208,7.0,8.0,83,0.00,,,0.00,32,Wunderground v.1.15,2013-03-12 12:48:00,
2013-03-12 08:53:00,33.9,29.3,29.80,South,180,5.0,5.0,83,0.00,,,0.00,49,Wunderground v.1.15,2013-03-12 12:53:00,
2013-03-12 08:58:00,33.9,29.3,29.80,SW,231,6.0,7.0,83,0.00,,,0.00,49,Wunderground v.1.15,2013-03-12 12:58:00,
2013-03-12 09:00:00,33.9,29.3,29.81,SSW,202,4.0,10.0,83,0.00,,,-99.99,44,WeatherLink 6.0.0,2013-03-12 13:00:00,
2013-03-12 09:03:00,33.9,29.3,29.81,South,188,8.0,8.0,83,0.00,,,0.00,44,Wunderground v.1.15,2013-03-12 13:03:00,
2013-03-12 09:08:00,33.9,29.6,29.81,SSW,202,3.0,13.0,84,0.00,,,0.00,37,Wunderground v.1.15,2013-03-12 13:08:00,
2013-03-12 09:13:00,33.8,29.5,29.81,SSW,202,4.0,8.0,84,0.00,,,0.00,46,Wunderground v.1.15,2013-03-12 13:13:00,
2013-03-12 09:18:00,33.7,29.7,29.81,SW,234,3.0,10.0,85,0.00,,,0.00,46,Wunderground v.1.15,2013-03-12 13:18:00,
2013-03-12 09:23:00,33.7,30.0,29.81,SSW,196,5.0,8.0,86,0.00,,,0.00,42,Wunderground v.1.15,2013-03-12 13:23:00,
2013-03-12 09:28:00,33.6,29.9,29.81,SSW,206,3.0,8.0,86,0.00,,,0.00,53,Wunderground v.1.15,2013-03-12 13:28:00,
2013-03-12 09:30:00,33.8,30.1,29.81,SSW,202,4.0,13.0,86,0.00,,,-99.99,44,WeatherLink 6.0.0,2013-03-12 13:30:00,
2013-03-12 09:34:00,33.6,29.9,29.81,SW,230,4.0,11.0,86,0.00,,,0.00,54,Wunderground v.1.15,2013-03-12 13:34:00,
2013-03-12 09:39:00,33.7,30.0,29.82,SW,218,4.0,11.0,86,0.00,,,0.00,54,Wunderground v.1.15,2013-03-12 13:39:00,
2013-03-12 09:44:00,33.9,29.9,29.82,SSW,205,4.0,11.0,85,0.00,,,0.00,56,Wunderground v.1.15,2013-03-12 13:44:00,
2013-03-12 09:49:00,34.0,30.0,29.82,West,277,8.0,11.0,85,0.00,,,0.00,63,Wunderground v.1.15,2013-03-12 13:49:00,
2013-03-12 09:54:00,34.0,29.7,29.82,SSW,207,2.0,8.0,84,0.00,,,0.00,72,Wunderground v.1.15,2013-03-12 13:54:00,
2013-03-12 09:59:00,34.2,29.6,29.82,SSW,195,5.0,10.0,83,0.00,,,0.00,97,Wunderground v.1.15,2013-03-12 13:59:00,
2013-03-12 10:00:00,33.9,29.3,29.82,SSW,202,4.0,11.0,83,0.00,,,-99.99,66,WeatherLink 6.0.0,2013-03-12 14:00:00,
2013-03-12 10:04:00,34.4,29.8,29.82,SSW,200,2.0,10.0,83,0.00,,,0.00,86,Wunderground v.1.15,2013-03-12 14:04:00,
2013-03-12 10:09:00,34.4,29.5,29.82,WSW,237,2.0,13.0,82,0.00,,,0.00,104,Wunderground v.1.15,2013-03-12 14:09:00,
2013-03-12 10:14:00,34.5,29.6,29.82,WSW,239,7.0,10.0,82,0.00,,,0.00,91,Wunderground v.1.15,2013-03-12 14:14:00,
2013-03-12 10:19:00,34.6,29.4,29.82,WSW,247,7.0,12.0,81,0.00,,,0.00,95,Wunderground v.1.15,2013-03-12 14:19:00,
2013-03-12 10:24:00,34.5,29.3,29.82,SSW,211,2.0,12.0,81,0.00,,,0.00,70,Wunderground v.1.15,2013-03-12 14:24:00,
2013-03-12 10:29:00,34.5,29.3,29.83,SSW,194,5.0,14.0,81,0.00,,,0.00,67,Wunderground v.1.15,2013-03-12 14:29:00,
2013-03-12 10:30:00,34.5,29.6,29.83,SW,225,5.0,15.0,82,0.00,,,-99.99,83,WeatherLink 6.0.0,2013-03-12 14:30:00,
2013-03-12 10:34:00,34.3,29.1,29.83,SSW,209,2.0,13.0,81,0.00,,,0.00,93,Wunderground v.1.15,2013-03-12 14:34:00,
2013-03-12 10:39:00,34.3,29.4,29.83,WSW,242,4.0,13.0,82,0.00,,,0.00,88,Wunderground v.1.15,2013-03-12 14:39:00,
2013-03-12 10:44:00,34.2,29.3,29.83,SSW,208,3.0,11.0,82,0.00,,,0.00,69,Wunderground v.1.15,2013-03-12 14:44:00,
2013-03-12 10:49:00,34.3,29.7,29.83,SSW,198,3.0,11.0,83,0.00,,,0.00,72,Wunderground v.1.15,2013-03-12 14:49:00,
2013-03-12 10:54:00,34.2,29.9,29.83,SSW,208,6.0,15.0,84,0.00,,,0.00,88,Wunderground v.1.15,2013-03-12 14:54:00,
2013-03-12 10:59:00,34.0,29.7,29.83,South,171,5.0,15.0,84,0.00,,,0.00,90,Wunderground v.1.15,2013-03-12 14:59:00,
2013-03-12 11:00:00,34.3,30.3,29.83,SW,225,6.0,17.0,85,0.00,,,-99.99,85,WeatherLink 6.0.0,2013-03-12 15:00:00,
2013-03-12 11:05:00,33.9,29.9,29.83,SSW,210,2.0,11.0,85,0.00,,,0.00,91,Wunderground v.1.15,2013-03-12 15:05:00,
2013-03-12 11:10:00,33.8,29.8,29.83,SSW,206,7.0,7.0,85,0.00,,,0.00,137,Wunderground v.1.15,2013-03-12 15:10:00,
2013-03-12 11:15:00,34.0,30.0,29.83,South,179,5.0,8.0,85,0.00,,,0.00,169,Wunderground v.1.15,2013-03-12 15:15:00,
2013-03-12 11:20:00,34.3,30.3,29.83,SW,231,4.0,6.0,85,0.00,,,0.00,134,Wunderground v.1.15,2013-03-12 15:20:00,
2013-03-12 11:25:00,34.4,29.8,29.83,SSW,210,6.0,13.0,83,0.00,,,0.00,155,Wunderground v.1.15,2013-03-12 15:25:00,
2013-03-12 11:30:00,34.3,29.7,29.83,SW,223,3.0,6.0,83,0.00,,,0.00,137,Wunderground v.1.15,2013-03-12 15:30:00,
2013-03-12 11:35:00,34.6,29.7,29.83,SSW,196,6.0,12.0,82,0.00,,,0.00,163,Wunderground v.1.15,2013-03-12 15:35:00,
2013-03-12 11:40:00,34.6,29.4,29.83,South,185,4.0,6.0,81,0.00,,,0.00,244,Wunderground v.1.15,2013-03-12 15:40:00,
2013-03-12 11:45:00,35.0,29.5,29.83,SSW,196,3.0,14.0,80,0.00,,,0.00,232,Wunderground v.1.15,2013-03-12 15:45:00,
2013-03-12 11:50:00,35.0,29.5,29.84,WSW,243,4.0,10.0,80,0.00,,,0.00,134,Wunderground v.1.15,2013-03-12 15:50:00,
2013-03-12 11:55:00,35.2,29.6,29.84,SW,234,7.0,10.0,80,0.00,,,0.00,132,Wunderground v.1.15,2013-03-12 15:55:00,
2013-03-12 12:00:00,34.9,29.4,29.84,SSW,202,6.0,16.0,80,0.00,,,-99.99,168,WeatherLink 6.0.0,2013-03-12 16:00:00,
2013-03-12 12:01:00,35.2,29.6,29.84,SW,232,6.0,7.0,80,0.00,,,0.00,95,Wunderground v.1.15,2013-03-12 16:01:00,
2013-03-12 12:06:00,35.0,29.1,29.84,NW,307,5.0,11.0,79,0.00,,,0.00,84,Wunderground v.1.15,2013-03-12 16:06:00,
2013-03-12 12:11:00,34.4,29.5,29.84,West,269,7.0,7.0,82,0.00,,,0.00,56,Wunderground v.1.15,2013-03-12 16:11:00,
2013-03-12 12:16:00,33.7,29.4,29.84,WSW,250,7.0,11.0,84,0.00,,,0.00,76,Wunderground v.1.15,2013-03-12 16:16:00,
2013-03-12 12:21:00,33.2,29.5,29.84,WSW,250,2.0,5.0,86,0.00,,,0.00,77,Wunderground v.1.15,2013-03-12 16:21:00,
2013-03-12 12:26:00,33.1,29.4,29.84,WSW,253,2.0,11.0,86,0.00,,,0.00,104,Wunderground v.1.15,2013-03-12 16:26:00,
2013-03-12 12:30:00,33.0,29.3,29.84,WSW,256,4.0,6.0,86,0.00,,,0.00,141,Wunderground v.1.15,2013-03-12 16:30:00,
2013-03-12 12:36:00,33.1,29.7,29.84,West,260,5.0,7.0,87,0.00,,,0.00,113,Wunderground v.1.15,2013-03-12 16:36:00,
2013-03-12 12:41:00,33.3,29.8,29.84,West,267,6.0,12.0,87,0.00,,,0.00,118,Wunderground v.1.15,2013-03-12 16:41:00,
2013-03-12 12:46:00,33.3,29.8,29.84,WSW,254,2.0,12.0,87,0.00,,,0.00,118,Wunderground v.1.15,2013-03-12 16:46:00,
2013-03-12 12:51:00,33.4,29.9,29.85,WSW,240,2.0,6.0,87,0.00,,,0.00,98,Wunderground v.1.15,2013-03-12 16:51:00,
2013-03-12 12:56:00,33.4,29.9,29.85,SW,219,3.0,6.0,87,0.00,,,0.00,130,Wunderground v.1.15,2013-03-12 16:56:00,
2013-03-12 13:00:00,33.3,29.8,29.85,WSW,247,4.0,12.0,87,0.01,,,-99.99,117,WeatherLink 6.0.0,2013-03-12 17:00:00,
2013-03-12 13:01:00,33.4,29.9,29.85,SW,219,2.0,4.0,87,0.00,,,0.01,134,Wunderground v.1.15,2013-03-12 17:01:00,
2013-03-12 13:06:00,33.5,30.0,29.85,SW,227,3.0,8.0,87,0.00,,,0.01,223,Wunderground v.1.15,2013-03-12 17:06:00,
2013-03-12 13:11:00,33.8,30.1,29.85,South,188,3.0,5.0,86,0.00,,,0.01,262,Wunderground v.1.15,2013-03-12 17:11:00,
2013-03-12 13:16:00,34.1,30.1,29.85,SSW,199,5.0,9.0,85,0.00,,,0.01,127,Wunderground v.1.15,2013-03-12 17:16:00,
2013-03-12 13:20:00,34.2,30.2,29.85,SW,231,6.0,8.0,85,0.00,,,0.01,86,Wunderground v.1.15,2013-03-12 17:20:00,
2013-03-12 13:26:00,33.9,29.3,29.85,SW,223,5.0,13.0,83,0.00,,,0.01,113,Wunderground v.1.15,2013-03-12 17:26:00,
2013-03-12 13:30:00,33.8,29.5,29.85,SW,225,4.0,13.0,84,0.01,,,-99.99,159,WeatherLink 6.0.0,2013-03-12 17:30:00,
2013-03-12 13:31:00,33.9,29.6,29.85,WSW,241,5.0,7.0,84,0.00,,,0.01,107,Wunderground v.1.15,2013-03-12 17:31:00,
2013-03-12 13:37:00,34.0,29.4,29.85,South,184,7.0,8.0,83,0.00,,,0.01,297,Wunderground v.1.15,2013-03-12 17:37:00,
2013-03-12 13:42:00,34.2,29.6,29.85,SSW,192,7.0,8.0,83,0.00,,,0.01,139,Wunderground v.1.15,2013-03-12 17:42:00,
2013-03-12 13:47:00,34.1,29.5,29.85,SW,223,11.0,11.0,83,0.00,,,0.01,97,Wunderground v.1.15,2013-03-12 17:47:00,
2013-03-12 13:52:00,34.0,29.1,29.85,SW,232,3.0,8.0,82,0.00,,,0.01,81,Wunderground v.1.15,2013-03-12 17:52:00,
2013-03-12 13:57:00,34.0,29.4,29.85,SW,214,8.0,12.0,83,0.00,,,0.01,62,Wunderground v.1.15,2013-03-12 17:57:00,
2013-03-12 14:00:00,34.0,29.4,29.85,SW,225,5.0,12.0,83,0.00,,,-99.99,140,WeatherLink 6.0.0,2013-03-12 18:00:00,
2013-03-12 14:02:00,33.9,29.3,29.85,SSW,209,8.0,13.0,83,0.00,,,0.01,116,Wunderground v.1.15,2013-03-12 18:02:00,
2013-03-12 14:07:00,33.9,29.6,29.85,West,265,4.0,13.0,84,0.00,,,0.01,244,Wunderground v.1.15,2013-03-12 18:07:00,
2013-03-12 14:12:00,34.3,30.3,29.85,SW,228,6.0,9.0,85,0.00,,,0.01,218,Wunderground v.1.15,2013-03-12 18:12:00,
2013-03-12 14:18:00,34.2,29.9,29.85,SW,236,4.0,12.0,84,0.00,,,0.01,109,Wunderground v.1.15,2013-03-12 18:18:00,
2013-03-12 14:23:00,34.0,29.7,29.85,SW,226,7.0,8.0,84,0.00,,,0.01,51,Wunderground v.1.15,2013-03-12 18:23:00,
2013-03-12 14:28:00,33.7,29.4,29.85,South,188,1.0,11.0,84,0.00,,,0.01,125,Wunderground v.1.15,2013-03-12 18:28:00,
2013-03-12 14:30:00,34.0,30.0,29.85,SW,225,5.0,14.0,85,0.00,,,-99.99,141,WeatherLink 6.0.0,2013-03-12 18:30:00,
2013-03-12 14:33:00,33.8,29.2,29.85,SSW,206,7.0,21.0,83,0.00,,,0.01,279,Wunderground v.1.15,2013-03-12 18:33:00,
2013-03-12 14:38:00,34.1,29.5,29.85,SSW,204,4.0,21.0,83,0.00,,,0.01,250,Wunderground v.1.15,2013-03-12 18:38:00,
2013-03-12 14:43:00,34.6,29.4,29.85,SW,236,8.0,20.0,81,0.00,,,0.01,234,Wunderground v.1.15,2013-03-12 18:43:00,
2013-03-12 14:48:00,34.7,29.2,29.85,SW,235,6.0,20.0,80,0.00,,,0.01,227,Wunderground v.1.15,2013-03-12 18:48:00,
2013-03-12 14:53:00,34.7,28.9,29.85,SW,225,7.0,11.0,79,0.00,,,0.01,158,Wunderground v.1.15,2013-03-12 18:53:00,
2013-03-12 14:59:00,34.7,28.5,29.85,WSW,240,6.0,16.0,78,0.00,,,0.01,125,Wunderground v.1.15,2013-03-12 18:59:00,
2013-03-12 15:00:00,34.4,28.2,29.85,SSW,202,7.0,22.0,78,0.00,,,-99.99,218,WeatherLink 6.0.0,2013-03-12 19:00:00,
2013-03-12 15:04:00,34.6,29.1,29.85,SW,215,10.0,11.0,80,0.00,,,0.01,98,Wunderground v.1.15,2013-03-12 19:04:00,
2013-03-12 15:09:00,34.5,28.7,29.84,SSW,194,7.0,16.0,79,0.00,,,0.01,316,Wunderground v.1.15,2013-03-12 19:09:00,
2013-03-12 15:14:00,34.7,28.9,29.84,South,182,7.0,12.0,79,0.00,,,0.01,206,Wunderground v.1.15,2013-03-12 19:14:00,
2013-03-12 15:19:00,34.8,28.3,29.84,SSW,211,6.0,13.0,77,0.00,,,0.01,181,Wunderground v.1.15,2013-03-12 19:19:00,
2013-03-12 15:23:00,34.8,28.3,29.84,West,275,13.0,13.0,77,0.00,,,0.02,148,Wunderground v.1.15,2013-03-12 19:23:00,
2013-03-12 15:28:00,34.9,28.4,29.84,SW,229,8.0,13.0,77,0.00,,,0.02,111,Wunderground v.1.15,2013-03-12 19:28:00,
2013-03-12 15:30:00,34.7,27.6,29.84,SSW,202,6.0,16.0,75,0.01,,,-99.99,175,WeatherLink 6.0.0,2013-03-12 19:30:00,
2013-03-12 15:34:00,34.7,27.6,29.84,SSW,197,5.0,7.0,75,0.00,,,0.02,88,Wunderground v.1.15,2013-03-12 19:34:00,
2013-03-12 15:39:00,34.6,27.5,29.84,SW,236,6.0,10.0,75,0.00,,,0.02,72,Wunderground v.1.15,2013-03-12 19:39:00,
2013-03-12 15:44:00,34.4,27.3,29.84,South,191,3.0,13.0,75,0.00,,,0.02,74,Wunderground v.1.15,2013-03-12 19:44:00,
2013-03-12 15:49:00,34.3,27.2,29.84,SW,214,6.0,13.0,75,0.00,,,0.02,46,Wunderground v.1.15,2013-03-12 19:49:00,
2013-03-12 15:54:00,34.3,27.8,29.85,WSW,251,4.0,9.0,77,0.00,,,0.02,42,Wunderground v.1.15,2013-03-12 19:54:00,
2013-03-12 15:59:00,34.3,27.8,29.85,SW,214,9.0,13.0,77,0.00,,,0.02,54,Wunderground v.1.15,2013-03-12 19:59:00,
2013-03-12 16:00:00,34.5,27.7,29.85,SW,225,5.0,17.0,76,0.01,,,-99.99,63,WeatherLink 6.0.0,2013-03-12 20:00:00,
2013-03-12 16:04:00,34.2,27.4,29.85,WSW,237,4.0,10.0,76,0.00,,,0.02,58,Wunderground v.1.15,2013-03-12 20:04:00,
2013-03-12 16:09:00,34.2,27.1,29.85,SW,215,4.0,11.0,75,0.00,,,0.02,104,Wunderground v.1.15,2013-03-12 20:09:00,
2013-03-12 16:14:00,34.3,27.2,29.85,South,175,2.0,9.0,75,0.00,,,0.02,174,Wunderground v.1.15,2013-03-12 20:14:00,
2013-03-12 16:19:00,34.7,27.6,29.85,SSE,168,5.0,9.0,75,0.00,,,0.02,125,Wunderground v.1.15,2013-03-12 20:19:00,
2013-03-12 16:24:00,34.8,27.4,29.85,SW,222,5.0,14.0,74,0.00,,,0.02,163,Wunderground v.1.15,2013-03-12 20:24:00,
2013-03-12 16:29:00,34.8,27.4,29.85,WSW,238,3.0,15.0,74,0.00,,,0.02,163,Wunderground v.1.15,2013-03-12 20:29:00,
2013-03-12 16:30:00,34.5,27.1,29.85,SW,225,5.0,15.0,74,0.00,,,-99.99,135,WeatherLink 6.0.0,2013-03-12 20:30:00,
2013-03-12 16:34:00,35.0,27.2,29.85,WSW,248,0.0,10.0,73,0.00,,,0.02,95,Wunderground v.1.15,2013-03-12 20:34:00,
2013-03-12 16:39:00,34.9,27.1,29.85,SW,217,4.0,10.0,73,0.00,,,0.02,63,Wunderground v.1.15,2013-03-12 20:39:00,
2013-03-12 16:44:00,34.8,27.0,29.86,SW,229,4.0,8.0,73,0.00,,,0.02,39,Wunderground v.1.15,2013-03-12 20:44:00,
2013-03-12 16:49:00,34.5,27.1,29.86,SW,219,4.0,14.0,74,0.00,,,0.02,30,Wunderground v.1.15,2013-03-12 20:49:00,
2013-03-12 16:54:00,34.3,26.9,29.86,SSW,198,3.0,19.0,74,0.00,,,0.02,49,Wunderground v.1.15,2013-03-12 20:54:00,
2013-03-12 16:59:00,34.2,27.1,29.86,SSW,205,3.0,19.0,75,0.00,,,0.02,121,Wunderground v.1.15,2013-03-12 20:59:00,
2013-03-12 17:00:00,34.6,27.2,29.86,SW,225,5.0,19.0,74,0.00,,,-99.99,66,WeatherLink 6.0.0,2013-03-12 21:00:00,
2013-03-12 17:04:00,34.2,26.4,29.86,South,185,6.0,13.0,73,0.00,,,0.02,100,Wunderground v.1.15,2013-03-12 21:04:00,
2013-03-12 17:09:00,34.2,26.4,29.86,SW,216,8.0,13.0,73,0.00,,,0.02,84,Wunderground v.1.15,2013-03-12 21:09:00,
2013-03-12 17:14:00,34.3,26.9,29.86,South,187,5.0,10.0,74,0.00,,,0.02,74,Wunderground v.1.15,2013-03-12 21:14:00,
2013-03-12 17:19:00,34.1,26.0,29.86,SSW,211,7.0,19.0,72,0.00,,,0.02,63,Wunderground v.1.15,2013-03-12 21:19:00,
2013-03-12 17:24:00,33.9,26.2,29.87,SW,236,7.0,12.0,73,0.00,,,0.02,67,Wunderground v.1.15,2013-03-12 21:24:00,
2013-03-12 17:29:00,33.9,25.8,29.87,SW,236,8.0,12.0,72,0.00,,,0.02,53,Wunderground v.1.15,2013-03-12 21:29:00,
2013-03-12 17:30:00,34.1,26.0,29.87,SW,225,6.0,19.0,72,0.00,,,-99.99,73,WeatherLink 6.0.0,2013-03-12 21:30:00,
2013-03-12 17:34:00,33.7,26.0,29.87,WSW,254,4.0,12.0,73,0.00,,,0.02,32,Wunderground v.1.15,2013-03-12 21:34:00,
2013-03-12 17:39:00,33.6,26.2,29.88,SW,236,4.0,12.0,74,0.00,,,0.02,25,Wunderground v.1.15,2013-03-12 21:39:00,
2013-03-12 17:44:00,33.5,26.4,29.88,WSW,242,3.0,9.0,75,0.00,,,0.02,25,Wunderground v.1.15,2013-03-12 21:44:00,
2013-03-12 17:49:00,33.4,26.3,29.88,West,267,10.0,15.0,75,0.00,,,0.02,28,Wunderground v.1.15,2013-03-12 21:49:00,
2013-03-12 17:54:00,33.3,26.2,29.88,SW,232,5.0,14.0,75,0.00,,,0.02,33,Wunderground v.1.15,2013-03-12 21:54:00,
2013-03-12 17:59:00,33.2,26.1,29.88,SW,225,2.0,14.0,75,0.00,,,0.02,54,Wunderground v.1.15,2013-03-12 21:59:00,
2013-03-12 18:00:00,33.5,26.7,29.88,SW,225,5.0,15.0,76,0.00,,,-99.99,33,WeatherLink 6.0.0,2013-03-12 22:00:00,
2013-03-12 18:04:00,33.2,26.1,29.88,SSW,200,4.0,13.0,75,0.00,,,0.02,46,Wunderground v.1.15,2013-03-12 22:04:00,
2013-03-12 18:09:00,33.2,26.1,29.88,WSW,240,4.0,13.0,75,0.00,,,0.02,49,Wunderground v.1.15,2013-03-12 22:09:00,
2013-03-12 18:14:00,33.2,26.1,29.88,SSW,211,3.0,10.0,75,0.00,,,0.02,54,Wunderground v.1.15,2013-03-12 22:14:00,
2013-03-12 18:19:00,33.3,25.9,29.88,SW,233,6.0,13.0,74,0.00,,,0.02,49,Wunderground v.1.15,2013-03-12 22:19:00,
2013-03-12 18:24:00,33.3,25.9,29.88,WSW,238,5.0,9.0,74,0.00,,,0.02,49,Wunderground v.1.15,2013-03-12 22:24:00,
2013-03-12 18:29:00,33.3,25.9,29.89,SSW,207,5.0,9.0,74,0.00,,,0.02,33,Wunderground v.1.15,2013-03-12 22:29:00,
2013-03-12 18:30:00,33.2,26.1,29.89,SW,225,5.0,13.0,75,0.00,,,-99.99,48,WeatherLink 6.0.0,2013-03-12 22:30:00,
2013-03-12 18:34:00,33.3,26.5,29.89,South,179,2.0,7.0,76,0.00,,,0.02,23,Wunderground v.1.15,2013-03-12 22:34:00,
2013-03-12 18:39:00,33.3,26.2,29.89,SW,214,4.0,8.0,75,0.00,,,0.02,18,Wunderground v.1.15,2013-03-12 22:39:00,
2013-03-12 18:44:00,33.2,26.5,29.89,WSW,247,5.0,9.0,76,0.00,,,0.02,21,Wunderground v.1.15,2013-03-12 22:44:00,
2013-03-12 18:49:00,33.0,26.3,29.89,WSW,249,4.0,9.0,76,0.00,,,0.02,32,Wunderground v.1.15,2013-03-12 22:49:00,
2013-03-12 18:54:00,33.0,26.3,29.89,SW,230,5.0,8.0,76,0.00,,,0.02,26,Wunderground v.1.15,2013-03-12 22:54:00,
2013-03-12 18:59:00,33.0,26.3,29.89,WSW,258,6.0,9.0,76,0.00,,,0.02,16,Wunderground v.1.15,2013-03-12 22:59:00,
2013-03-12 19:00:00,33.1,26.4,29.89,SW,225,4.0,13.0,76,0.00,,,-99.99,23,WeatherLink 6.0.0,2013-03-12 23:00:00,
2013-03-12 19:05:00,32.9,26.2,29.89,WSW,252,4.0,11.0,76,0.00,,,0.02,9,Wunderground v.1.15,2013-03-12 23:05:00,
2013-03-12 19:10:00,32.9,26.2,29.89,SW,216,4.0,11.0,76,0.00,,,0.02,7,Wunderground v.1.15,2013-03-12 23:10:00,
2013-03-12 19:15:00,32.8,26.4,29.89,West,271,1.0,9.0,77,0.00,,,0.02,7,Wunderground v.1.15,2013-03-12 23:15:00,
2013-03-12 19:20:00,32.7,26.6,29.90,SW,228,3.0,4.0,78,0.00,,,0.02,7,Wunderground v.1.15,2013-03-12 23:20:00,
2013-03-12 19:25:00,32.7,26.6,29.90,SW,219,1.0,8.0,78,0.00,,,0.02,0,Wunderground v.1.15,2013-03-12 23:25:00,
2013-03-12 19:30:00,32.6,26.8,29.90,SW,218,5.0,5.0,79,0.00,,,0.02,0,Wunderground v.1.15,2013-03-12 23:30:00,
2013-03-12 19:35:00,32.6,26.8,29.90,West,267,2.0,7.0,79,0.00,,,0.02,0,Wunderground v.1.15,2013-03-12 23:35:00,
2013-03-12 19:40:00,32.5,27.0,29.90,SW,220,2.0,4.0,80,0.00,,,0.02,0,Wunderground v.1.15,2013-03-12 23:40:00,
2013-03-12 19:45:00,32.4,27.2,29.90,SSW,203,4.0,6.0,81,0.00,,,0.02,0,Wunderground v.1.15,2013-03-12 23:45:00,
2013-03-12 19:50:00,32.2,27.0,29.90,SW,233,3.0,4.0,81,0.00,,,0.02,0,Wunderground v.1.15,2013-03-12 23:50:00,
2013-03-12 19:55:00,32.1,27.2,29.90,SW,222,4.0,7.0,82,0.00,,,0.02,0,Wunderground v.1.15,2013-03-12 23:55:00,
2013-03-12 20:00:00,32.0,27.7,29.91,West,259,4.0,4.0,84,0.00,,,0.02,0,Wunderground v.1.15,2013-03-13 00:00:00,
2013-03-12 20:05:00,31.7,27.7,29.91,West,261,2.0,6.0,85,0.00,,,0.02,0,Wunderground v.1.15,2013-03-13 00:05:00,
2013-03-12 20:10:00,31.5,28.1,29.91,West,264,4.0,6.0,87,0.00,,,0.02,0,Wunderground v.1.15,2013-03-13 00:10:00,
2013-03-12 20:15:00,31.2,28.1,29.91,SW,224,4.0,6.0,88,0.00,,,0.02,0,Wunderground v.1.15,2013-03-13 00:15:00,
2013-03-12 20:20:00,31.0,28.1,29.92,SSW,204,2.0,6.0,89,0.00,,,0.02,0,Wunderground v.1.15,2013-03-13 00:20:00,
2013-03-12 20:25:00,30.8,27.9,29.91,SW,219,3.0,6.0,89,0.00,,,0.02,0,Wunderground v.1.15,2013-03-13 00:25:00,
2013-03-12 20:30:00,30.8,27.7,29.91,SSW,207,3.0,4.0,88,0.00,,,0.02,0,Wunderground v.1.15,2013-03-13 00:30:00,
2013-03-12 20:35:00,30.8,27.4,29.91,SSW,213,2.0,6.0,87,0.00,,,0.02,0,Wunderground v.1.15,2013-03-13 00:35:00,
2013-03-12 20:40:00,30.8,27.4,29.91,SSW,208,1.0,5.0,87,0.00,,,0.02,0,Wunderground v.1.15,2013-03-13 00:40:00,
2013-03-12 20:46:00,30.8,27.1,29.91,SSW,210,3.0,11.0,86,0.00,,,0.02,0,Wunderground v.1.15,2013-03-13 00:46:00,
2013-03-12 20:51:00,30.7,26.7,29.91,SW,228,3.0,5.0,85,0.00,,,0.02,0,Wunderground v.1.15,2013-03-13 00:51:00,
2013-03-12 20:56:00,30.6,26.6,29.91,SW,233,2.0,6.0,85,0.00,,,0.02,0,Wunderground v.1.15,2013-03-13 00:56:00,
2013-03-12 21:00:00,30.7,26.7,29.91,SW,225,3.0,11.0,85,0.00,,,-99.99,0,WeatherLink 6.0.0,2013-03-13 01:00:00,
2013-03-12 21:01:00,30.4,26.4,29.91,SSW,207,3.0,6.0,85,0.00,,,0.02,0,Wunderground v.1.15,2013-03-13 01:01:00,
2013-03-12 21:06:00,30.4,26.1,29.91,SW,217,4.0,6.0,84,0.00,,,0.02,0,Wunderground v.1.15,2013-03-13 01:06:00,
2013-03-12 21:11:00,30.2,25.9,29.91,SW,223,4.0,5.0,84,0.00,,,0.02,0,Wunderground v.1.15,2013-03-13 01:11:00,
2013-03-12 21:17:00,30.2,25.9,29.92,SSW,196,3.0,7.0,84,0.00,,,0.02,0,Wunderground v.1.15,2013-03-13 01:17:00,
2013-03-12 21:22:00,30.1,25.6,29.92,SW,235,2.0,4.0,83,0.00,,,0.02,0,Wunderground v.1.15,2013-03-13 01:22:00,
2013-03-12 21:27:00,30.1,25.6,29.92,SW,222,2.0,7.0,83,0.00,,,0.02,0,Wunderground v.1.15,2013-03-13 01:27:00,
2013-03-12 21:30:00,30.2,25.9,29.92,SW,225,3.0,7.0,84,0.00,,,-99.99,0,WeatherLink 6.0.0,2013-03-13 01:30:00,
2013-03-12 21:32:00,30.0,25.5,29.92,SW,233,3.0,8.0,83,0.00,,,0.02,0,Wunderground v.1.15,2013-03-13 01:32:00,
2013-03-12 21:37:00,30.1,25.6,29.92,SW,220,4.0,8.0,83,0.00,,,0.02,0,Wunderground v.1.15,2013-03-13 01:37:00,
2013-03-12 21:42:00,30.2,25.7,29.92,SW,222,3.0,5.0,83,0.00,,,0.02,0,Wunderground v.1.15,2013-03-13 01:42:00,
2013-03-12 21:47:00,30.3,25.8,29.92,SSW,197,3.0,6.0,83,0.00,,,0.02,0,Wunderground v.1.15,2013-03-13 01:47:00,
2013-03-12 21:52:00,30.3,25.5,29.92,SW,224,6.0,6.0,82,0.00,,,0.02,0,Wunderground v.1.15,2013-03-13 01:52:00,
2013-03-12 21:57:00,30.3,25.5,29.92,South,189,4.0,7.0,82,0.00,,,0.02,0,Wunderground v.1.15,2013-03-13 01:57:00,
2013-03-12 22:00:00,30.2,25.1,29.92,SW,225,3.0,10.0,81,0.00,,,-99.99,0,WeatherLink 6.0.0,2013-03-13 02:00:00,
2013-03-12 22:02:00,30.2,25.1,29.92,SW,229,3.0,5.0,81,0.00,,,0.02,0,Wunderground v.1.15,2013-03-13 02:02:00,
2013-03-12 22:07:00,30.2,25.1,29.92,SW,218,2.0,5.0,81,0.00,,,0.02,0,Wunderground v.1.15,2013-03-13 02:07:00,
2013-03-12 22:12:00,30.1,25.0,29.92,SW,215,1.0,4.0,81,0.00,,,0.02,0,Wunderground v.1.15,2013-03-13 02:12:00,
2013-03-12 22:17:00,30.0,24.9,29.92,SW,217,2.0,5.0,81,0.00,,,0.02,0,Wunderground v.1.15,2013-03-13 02:17:00,
2013-03-12 22:22:00,30.0,24.9,29.92,WSW,240,2.0,3.0,81,0.00,,,0.02,0,Wunderground v.1.15,2013-03-13 02:22:00,
2013-03-12 22:27:00,29.9,25.1,29.92,SSW,195,2.0,7.0,82,0.00,,,0.02,0,Wunderground v.1.15,2013-03-13 02:27:00,
2013-03-12 22:30:00,30.0,25.2,29.92,SSW,202,3.0,8.0,82,0.00,,,-99.99,0,WeatherLink 6.0.0,2013-03-13 02:30:00,
2013-03-12 22:32:00,29.9,25.1,29.92,SSW,201,1.0,3.0,82,0.00,,,0.02,0,Wunderground v.1.15,2013-03-13 02:32:00,
2013-03-12 22:37:00,29.9,25.1,29.92,SW,216,3.0,5.0,82,0.00,,,0.02,0,Wunderground v.1.15,2013-03-13 02:37:00,
2013-03-12 22:42:00,29.9,25.1,29.92,South,190,3.0,4.0,82,0.00,,,0.02,0,Wunderground v.1.15,2013-03-13 02:42:00,
2013-03-12 22:47:00,30.0,25.2,29.91,SSW,193,2.0,4.0,82,0.00,,,0.02,0,Wunderground v.1.15,2013-03-13 02:47:00,
2013-03-12 22:52:00,30.0,25.2,29.91,South,182,2.0,4.0,82,0.00,,,0.02,0,Wunderground v.1.15,2013-03-13 02:52:00,
2013-03-12 22:57:00,30.0,25.2,29.91,South,188,3.0,5.0,82,0.00,,,0.02,0,Wunderground v.1.15,2013-03-13 02:57:00,
2013-03-12 23:00:00,30.0,25.2,29.91,SSW,202,2.0,6.0,82,0.00,,,-99.99,0,WeatherLink 6.0.0,2013-03-13 03:00:00,
2013-03-12 23:02:00,29.9,25.1,29.91,South,183,2.0,5.0,82,0.00,,,0.02,0,Wunderground v.1.15,2013-03-13 03:02:00,
2013-03-12 23:07:00,29.9,25.1,29.91,South,188,1.0,5.0,82,0.00,,,0.02,0,Wunderground v.1.15,2013-03-13 03:07:00,
2013-03-12 23:12:00,29.7,24.9,29.91,South,190,2.0,3.0,82,0.00,,,0.02,0,Wunderground v.1.15,2013-03-13 03:12:00,
2013-03-12 23:17:00,29.7,25.2,29.91,SSW,196,2.0,4.0,83,0.00,,,0.02,0,Wunderground v.1.15,2013-03-13 03:17:00,
2013-03-12 23:22:00,29.7,25.2,29.91,South,184,4.0,6.0,83,0.00,,,0.02,0,Wunderground v.1.15,2013-03-13 03:22:00,
2013-03-12 23:27:00,29.9,25.4,29.91,SSW,192,0.0,6.0,83,0.00,,,0.02,0,Wunderground v.1.15,2013-03-13 03:27:00,
2013-03-12 23:30:00,29.8,25.3,29.91,SSW,202,3.0,6.0,83,0.00,,,-99.99,0,WeatherLink 6.0.0,2013-03-13 03:30:00,
2013-03-12 23:33:00,30.0,25.8,29.91,South,178,4.0,4.0,84,0.00,,,0.02,0,Wunderground v.1.15,2013-03-13 03:33:00,
2013-03-12 23:38:00,30.1,25.8,29.91,South,190,4.0,7.0,84,0.00,,,0.02,0,Wunderground v.1.15,2013-03-13 03:38:00,
2013-03-12 23:43:00,30.2,25.9,29.91,SSW,205,4.0,6.0,84,0.00,,,0.02,0,Wunderground v.1.15,2013-03-13 03:43:00,
2013-03-12 23:48:00,30.3,26.3,29.91,SSW,194,4.0,7.0,85,0.00,,,0.02,0,Wunderground v.1.15,2013-03-13 03:48:00,
2013-03-12 23:53:00,30.3,26.3,29.91,SSW,196,1.0,3.0,85,0.00,,,0.02,0,Wunderground v.1.15,2013-03-13 03:53:00,
2013-03-12 23:58:00,30.3,26.3,29.91,SSW,200,6.0,6.0,85,0.00,,,0.02,0,Wunderground v.1.15,2013-03-13 03:58:00,